Lexington, NC

9:21 AM EST on February 22, 2017 (GMT -0500)
Davidson County

Weather History for KEXX - December, 2013

Change the Weather History Date:

Thursday, December 19, 2013

  Actual Average (KINT) Record (KINT)
Temperature  
Mean Temperature 44 °F -  
Max Temperature 62 °F 47 °F 76 °F (1984)
Min Temperature 25 °F 30 °F 9 °F (1975)
Degree Days  
Heating Degree Days 22    
Moisture  
Dew Point 24 °F    
Average Humidity 53    
Maximum Humidity 90    
Minimum Humidity 23    
Precipitation  
Precipitation 0.00 in - - ()
Sea Level Pressure  
Sea Level Pressure 30.25 in    
Wind  
Wind Speed 2 mph (SSW)    
Max Wind Speed 12 mph    
Max Gust Speed 18 mph    
Visibility 10 miles    
Events      
Averages and records for this station are not official NWS values.
T = Trace of Precipitation, MM = Missing Value Source: NWS Daily Summary

Daily Weather History Graph

Daily Weather History Graph

Search for Another Location

Airport or City:

Trip Planner

Search our weather history database for the weather conditions in past years. The results will help you decide how hot, cold, wet, or windy it might be!

Date:

Astronomy

Dec. 19, 2013 Rise Set
Actual Time 7:26 AM EST 5:10 PM EST
Civil Twilight 6:57 AM EST 5:39 PM EST
Nautical Twilight 6:25 AM EST 6:11 PM EST
Astronomical Twilight 5:54 AM EST 6:42 PM EST
Moon 7:30 PM EST (12/19) 8:47 AM EST (12/19)
Length of Visible Light 10h 41m
Length of Day
9h 44m
Waning Gibbous, 95% of the Moon is Illuminated
Dec 19
Waning Gibbous
Dec 25
Last Quarter
Jan 1
New
Jan 7
First Quarter
Jan 15
Full

Hourly Weather History & Observations

Time (EST) Temp. Windchill Dew Point Humidity Pressure Visibility Wind Dir Wind Speed Gust Speed Precip Events Conditions
12:15 AM 28.4 °F - 20.7 °F 73% 30.27 in 10.0 mi Calm Calm - N/A   Clear
12:35 AM 27.7 °F - 21.7 °F 78% 30.27 in 10.0 mi Calm Calm - N/A   Clear
12:55 AM 27.3 °F - 21.0 °F 77% 30.26 in 10.0 mi Calm Calm - N/A   Clear
1:15 AM 26.6 °F - 21.0 °F 79% 30.26 in 10.0 mi Calm Calm - N/A   Clear
1:35 AM 26.6 °F - 21.4 °F 81% 30.26 in 10.0 mi Calm Calm - N/A   Clear
1:55 AM 26.8 °F - 21.7 °F 81% 30.26 in 10.0 mi Calm Calm - N/A   Clear
2:15 AM 26.4 °F - 21.2 °F 81% 30.26 in 10.0 mi Calm Calm - N/A   Clear
2:35 AM 25.7 °F - 21.7 °F 85% 30.27 in 10.0 mi Calm Calm - N/A   Clear
2:55 AM 25.9 °F - 21.0 °F 82% 30.27 in 10.0 mi Calm Calm - N/A   Clear
3:15 AM 26.2 °F - 21.2 °F 81% 30.27 in 10.0 mi Calm Calm - N/A   Clear
3:35 AM 26.6 °F - 22.1 °F 83% 30.27 in 10.0 mi Calm Calm - N/A   Clear
3:55 AM 26.6 °F - 21.7 °F 82% 30.27 in 10.0 mi Calm Calm - N/A   Clear
4:15 AM 26.6 °F - 22.6 °F 85% 30.26 in 10.0 mi Calm Calm - N/A   Clear
4:35 AM 25.2 °F - 21.9 °F 87% 30.27 in 10.0 mi Calm Calm - N/A   Clear
4:55 AM 25.5 °F - 21.9 °F 86% 30.27 in 10.0 mi Calm Calm - N/A   Clear
5:15 AM 26.1 °F - 22.1 °F 85% 30.26 in 10.0 mi Calm Calm - N/A   Clear
5:35 AM 27.3 °F - 23.7 °F 86% 30.26 in 10.0 mi Calm Calm - N/A   Clear
5:55 AM 27.3 °F - 23.9 °F 87% 30.27 in 10.0 mi Calm Calm - N/A   Clear
6:15 AM 27.1 °F - 23.4 °F 86% 30.27 in 10.0 mi Calm Calm - N/A   Clear
6:35 AM 26.1 °F - 22.5 °F 86% 30.27 in 10.0 mi Calm Calm - N/A   Clear
6:55 AM 28.2 °F - 25.5 °F 90% 30.28 in 10.0 mi Calm Calm - N/A   Clear
7:15 AM 30.0 °F - 23.9 °F 78% 30.28 in 10.0 mi Calm Calm - N/A   Clear
7:35 AM 27.3 °F - 23.9 °F 87% 30.29 in 10.0 mi Calm Calm - N/A   Clear
7:55 AM 27.3 °F - 23.9 °F 87% 30.30 in 10.0 mi Calm Calm - N/A   Clear
8:15 AM 29.5 °F - 25.3 °F 85% 30.30 in 10.0 mi Calm Calm - N/A   Clear
8:35 AM 32.0 °F - 26.8 °F 81% 30.30 in 10.0 mi Calm Calm - N/A   Clear
8:55 AM 35.2 °F - 26.8 °F 71% 30.30 in 10.0 mi Calm Calm - N/A   Clear
9:15 AM 37.2 °F - 26.4 °F 65% 30.30 in 10.0 mi Calm Calm - N/A   Clear
9:35 AM 39.9 °F - 27.0 °F 60% 30.31 in 10.0 mi Calm Calm - N/A   Clear
9:55 AM 42.8 °F - 25.9 °F 51% 30.31 in 10.0 mi Calm Calm - N/A   Clear
10:15 AM 45.0 °F 41.8 °F 26.1 °F 48% 30.31 in 10.0 mi South 5.8 mph - N/A   Clear
10:35 AM 47.7 °F - 26.8 °F 44% 30.31 in 10.0 mi South 4.6 mph - N/A   Clear
10:55 AM 50.9 °F - 27.0 °F 40% 30.30 in 10.0 mi South 3.5 mph - N/A   Clear
11:15 AM 54.1 °F - 23.7 °F 31% 30.29 in 10.0 mi SSW 5.8 mph - N/A   Clear
11:35 AM 55.9 °F - 23.5 °F 29% 30.28 in 10.0 mi SSW 5.8 mph - N/A   Clear
11:55 AM 57.0 °F - 22.6 °F 26% 30.27 in 10.0 mi SSW 8.1 mph - N/A   Clear
12:15 PM 57.7 °F - 22.5 °F 26% 30.26 in 10.0 mi SW 8.1 mph - N/A   Clear
12:35 PM 59.0 °F - 23.0 °F 25% 30.25 in 10.0 mi SSW 9.2 mph 17.3 mph N/A   Clear
12:55 PM 59.9 °F - 23.4 °F 25% 30.24 in 10.0 mi South 8.1 mph - N/A   Clear
1:15 PM 60.8 °F - 24.1 °F 25% 30.23 in 10.0 mi SSW 9.2 mph - N/A   Clear
1:35 PM 61.7 °F - 23.7 °F 23% 30.22 in 10.0 mi SSW 11.5 mph 18.4 mph N/A   Clear
1:55 PM 61.9 °F - 24.1 °F 24% 30.22 in 10.0 mi SSW 8.1 mph 16.1 mph N/A   Clear
2:15 PM 62.8 °F - 24.6 °F 23% 30.21 in 10.0 mi SSW 10.4 mph 16.1 mph N/A   Clear
2:35 PM 62.2 °F - 24.1 °F 23% 30.21 in 10.0 mi South 9.2 mph - N/A   Clear
2:55 PM 61.9 °F - 23.5 °F 23% 30.21 in 10.0 mi South 8.1 mph - N/A   Clear
3:15 PM 62.6 °F - 23.7 °F 23% 30.20 in 10.0 mi South 9.2 mph - N/A   Clear
3:35 PM 59.5 °F - 23.9 °F 25% 30.21 in 10.0 mi SSW 3.5 mph - N/A   Clear
3:55 PM 60.8 °F - 24.4 °F 25% 30.21 in 10.0 mi South 5.8 mph - N/A   Clear
4:15 PM 59.2 °F - 25.2 °F 27% 30.21 in 10.0 mi South 6.9 mph - N/A   Clear
4:35 PM 58.1 °F - 24.8 °F 28% 30.22 in 10.0 mi South 5.8 mph - N/A   Clear
4:55 PM 56.7 °F - 25.2 °F 30% 30.22 in 10.0 mi SSW 3.5 mph - N/A   Clear
5:15 PM 55.4 °F - 25.2 °F 31% 30.22 in 10.0 mi South 3.5 mph - N/A   Clear
5:35 PM 54.3 °F - 25.2 °F 32% 30.23 in 10.0 mi South 3.5 mph - N/A   Clear
5:55 PM 54.5 °F - 25.5 °F 33% 30.23 in 10.0 mi South 4.6 mph - N/A   Scattered Clouds
6:15 PM 53.6 °F - 25.5 °F 34% 30.23 in 10.0 mi South 3.5 mph - N/A   Clear
6:35 PM 52.9 °F - 25.9 °F 35% 30.23 in 10.0 mi South 4.6 mph - N/A   Clear
6:55 PM 52.0 °F - 25.9 °F 36% 30.23 in 10.0 mi South 3.5 mph - N/A   Clear
7:15 PM 51.3 °F - 26.1 °F 38% 30.24 in 10.0 mi South 3.5 mph - N/A   Clear
7:35 PM 51.1 °F - 26.2 °F 38% 30.24 in 10.0 mi South 4.6 mph - N/A   Clear
7:55 PM 50.5 °F - 26.1 °F 39% 30.24 in 10.0 mi South 4.6 mph - N/A   Clear
8:15 PM 49.1 °F - 25.7 °F 40% 30.23 in 10.0 mi SSW 3.5 mph - N/A   Clear
8:35 PM 48.7 °F - 26.2 °F 42% 30.23 in 10.0 mi SSW 4.6 mph - N/A   Clear
8:55 PM 48.9 °F - 26.2 °F 41% 30.23 in 10.0 mi SSW 3.5 mph - N/A   Clear
9:15 PM 48.2 °F - 26.1 °F 42% 30.23 in 10.0 mi South 3.5 mph - N/A   Clear
9:35 PM 47.1 °F - 25.7 °F 43% 30.23 in 10.0 mi South 3.5 mph - N/A   Clear
9:55 PM 46.4 °F 44.3 °F 26.1 °F 45% 30.23 in 10.0 mi SSW 4.6 mph - N/A   Clear
10:15 PM 47.5 °F - 25.7 °F 43% 30.22 in 10.0 mi South 6.9 mph - N/A   Clear
10:35 PM 47.8 °F - 26.1 °F 43% 30.23 in 10.0 mi SSW 6.9 mph - N/A   Clear
10:55 PM 46.8 °F - 26.2 °F 45% 30.24 in 10.0 mi SSW 4.6 mph - N/A   Clear
11:15 PM 46.6 °F - 26.1 °F 45% 30.24 in 10.0 mi SSW 4.6 mph - N/A   Clear
11:35 PM 45.7 °F 43.4 °F 26.2 °F 47% 30.23 in 10.0 mi SSW 4.6 mph - N/A   Clear
11:55 PM 45.9 °F - 26.2 °F 46% 30.23 in 10.0 mi Calm Calm - N/A   Clear